Satellite: NOAA-11
Catalog number: 19531
Epoch time:      09344.14826873
Element set:     882
Inclination:      098.7783 deg
RA of node:       071.3402 deg
Eccentricity:    0.0011348
Arg of perigee:   330.8965 deg
Mean anomaly:     029.1565 deg
Mean motion:   14.14910909 rev/day
Decay rate:       2.22e-06 rev/day^2
Epoch rev:            9440
Checksum:              307

Satellite: NOAA-12
Catalog number: 21263
Epoch time:      09344.55473262
Element set:     366
Inclination:      098.7702 deg
RA of node:       352.6990 deg
Eccentricity:    0.0012505
Arg of perigee:   358.9761 deg
Mean anomaly:     001.1389 deg
Mean motion:   14.25606165 rev/day
Decay rate:        2.6e-07 rev/day^2
Epoch rev:           96552
Checksum:              309

Satellite: MET-3/5
Catalog number: 21655
Epoch time:      09343.94164257
Element set:    0743
Inclination:      082.5507 deg
RA of node:       082.3436 deg
Eccentricity:    0.0014551
Arg of perigee:   099.9442 deg
Mean anomaly:     260.3324 deg
Mean motion:   13.17021063 rev/day
Decay rate:        5.1e-07 rev/day^2
Epoch rev:           88076
Checksum:              294

Satellite: MET-2/21
Catalog number: 22782
Epoch time:      09344.84203413
Element set:     640
Inclination:      082.5487 deg
RA of node:       041.8720 deg
Eccentricity:    0.0021641
Arg of perigee:   207.8108 deg
Mean anomaly:     152.1890 deg
Mean motion:   13.83640789 rev/day
Decay rate:       -9.7e-07 rev/day^2
Epoch rev:           82203
Checksum:              295

Satellite: OKEAN-4
Catalog number: 23317
Epoch time:      09343.83116649
Element set:      95
Inclination:      082.5396 deg
RA of node:       170.5783 deg
Eccentricity:    0.0022846
Arg of perigee:   142.2580 deg
Mean anomaly:     218.0277 deg
Mean motion:   14.82744800 rev/day
Decay rate:       1.33e-06 rev/day^2
Epoch rev:           81839
Checksum:              310

Satellite: NOAA-14
Catalog number: 23455
Epoch time:      09344.39378575
Element set:     858
Inclination:      098.8960 deg
RA of node:       061.3252 deg
Eccentricity:    0.0010085
Arg of perigee:   054.6870 deg
Mean anomaly:     305.5259 deg
Mean motion:   14.13775211 rev/day
Decay rate:        5.0e-07 rev/day^2
Epoch rev:           77082
Checksum:              316

Satellite: NOAA-15
Catalog number: 25338
Epoch time:      09349.44666129
Element set:     961
Inclination:      098.6024 deg
RA of node:       334.8444 deg
Eccentricity:    0.0009573
Arg of perigee:   249.5173 deg
Mean anomaly:     110.4595 deg
Mean motion:   14.24797098 rev/day
Decay rate:        2.9e-07 rev/day^2
Epoch rev:           60258
Checksum:              339

Satellite: RESURS
Catalog number: 25394
Epoch time:      09344.64226321
Element set:     378
Inclination:      098.3202 deg
RA of node:       007.8555 deg
Eccentricity:    0.0002372
Arg of perigee:   062.3524 deg
Mean anomaly:     297.7896 deg
Mean motion:   14.24191292 rev/day
Decay rate:       -2.3e-07 rev/day^2
Epoch rev:           59351
Checksum:              299

Satellite: FENGYUN1
Catalog number: 25730
Epoch time:      09344.16301307
Element set:     920
Inclination:      098.7728 deg
RA of node:       309.2015 deg
Eccentricity:    0.0023326
Arg of perigee:   073.9289 deg
Mean anomaly:     286.4436 deg
Mean motion:   14.08124110 rev/day
Decay rate:      1.139e-05 rev/day^2
Epoch rev:           54508
Checksum:              284

Satellite: OKEAN-0
Catalog number: 25860
Epoch time:      09344.51506740
Element set:     858
Inclination:      097.8088 deg
RA of node:       318.9047 deg
Eccentricity:    0.0001117
Arg of perigee:   048.0779 deg
Mean anomaly:     312.0537 deg
Mean motion:   14.73601507 rev/day
Decay rate:        6.0e-08 rev/day^2
Epoch rev:           55911
Checksum:              301

Satellite: NOAA-16
Catalog number: 26536
Epoch time:      09349.48555968
Element set:     965
Inclination:      099.1786 deg
RA of node:       357.5612 deg
Eccentricity:    0.0011208
Arg of perigee:   129.4119 deg
Mean anomaly:     230.7550 deg
Mean motion:   14.12541947 rev/day
Decay rate:        9.1e-07 rev/day^2
Epoch rev:           47589
Checksum:              346

Satellite: NOAA-17
Catalog number: 27453
Epoch time:      09349.48265641
Element set:     722
Inclination:      098.4619 deg
RA of node:       042.0782 deg
Eccentricity:    0.0011036
Arg of perigee:   319.5255 deg
Mean anomaly:     040.5056 deg
Mean motion:   14.24113179 rev/day
Decay rate:       -1.0e-08 rev/day^2
Epoch rev:           38855
Checksum:              298

Satellite: NOAA-18
Catalog number: 28654
Epoch time:      09344.50909731
Element set:     144
Inclination:      098.9283 deg
RA of node:       286.5396 deg
Eccentricity:    0.0013742
Arg of perigee:   223.3081 deg
Mean anomaly:     136.7008 deg
Mean motion:   14.11308493 rev/day
Decay rate:      -1.29e-06 rev/day^2
Epoch rev:           23482
Checksum:              312

Satellite: NOAA-19
Catalog number: 33591
Epoch time:      09344.52713352
Element set:     352
Inclination:      098.7685 deg
RA of node:       285.8654 deg
Eccentricity:    0.0014969
Arg of perigee:   103.1176 deg
Mean anomaly:     257.1623 deg
Mean motion:   14.11009166 rev/day
Decay rate:       2.39e-06 rev/day^2
Epoch rev:            4330
Checksum:              307

/EX
SB KEPS @ AMSAT  $ORB09344.M
Orbital Elements  09344.MISC

HR AMSAT ORBITAL ELEMENTS FOR MANNED AND MISCELLANEOUS SATELLITES
FROM WA5QGD FORT WORTH,TX December 10, 2009
Send Subscribe/unsubscribe to KEPS at http://www.amsat.org/mailman/listinfo/keps
BID: ORB09344.M
TO ALL RADIO AMATEURS BT

Satellite: HUBBLE
Catalog number: 20580
Epoch time:      09343.60367032
Element set:     487
Inclination:      028.4710 deg
RA of node:       037.3903 deg
Eccentricity:    0.0003225
Arg of perigee:   346.8092 deg
Mean anomaly:     013.2428 deg
Mean motion:   15.00863663 rev/day
Decay rate:       3.02e-06 rev/day^2
Epoch rev:           87623
Checksum:              269

Satellite: ISS
Catalog number: 25544
Epoch time:      09344.87415091
Element set:     148
Inclination:      051.6444 deg
RA of node:       118.7669 deg
Eccentricity:    0.0008007
Arg of perigee:   067.1016 deg
Mean anomaly:     071.3090 deg
Mean motion:   15.76439945 rev/day
Decay rate:      9.658e-05 rev/day^2
Epoch rev:           63379
Checksum:              323

Satellite: CO-58
Catalog number: 28895
Epoch time:      09342.23312638
Element set:     460
Inclination:      098.0372 deg
RA of node:       227.7430 deg
Eccentricity:    0.0018247
Arg of perigee:   160.6581 deg
Mean anomaly:     199.5292 deg
Mean motion:   14.59821754 rev/day
Decay rate:       -4.2e-07 rev/day^2
Epoch rev:           21912
Checksum:              320

Satellite: FALCON
Catalog number: 30776
Epoch time:      09344.75982071
Element set:     719
Inclination:      035.4325 deg
RA of node:       108.0132 deg
Eccentricity:    0.0002091
Arg of perigee:   349.0918 deg
Mean anomaly:     010.9752 deg
Mean motion:   15.03389258 rev/day
Decay rate:       3.50e-06 rev/day^2
Epoch rev:           15168
Checksum:              288

Satellite: MAST
Catalog number: 31126
Epoch time:      09344.12618289
Element set:     751
Inclination:      097.9661 deg
RA of node:       030.6500 deg
Eccentricity:    0.0095737
Arg of perigee:   093.4770 deg
Mean anomaly:     267.7397 deg
Mean motion:   14.53537334 rev/day
Decay rate:        6.8e-07 rev/day^2
Epoch rev:           14059
Checksum:              318

Satellite: CAPE1
Catalog number: 31130
Epoch time:      09344.13146678
Element set:     763
Inclination:      097.9679 deg
RA of node:       028.4532 deg
Eccentricity:    0.0103898
Arg of perigee:   100.3387 deg
Mean anomaly:     260.9541 deg
Mean motion:   14.52113203 rev/day
Decay rate:        2.2e-07 rev/day^2
Epoch rev:           14022
Checksum:              275

Satellite: COMPASS
Catalog number: 32787
Epoch time:      09344.22835410
Element set:     539
Inclination:      097.9219 deg
RA of node:       046.3632 deg
Eccentricity:    0.0015771
Arg of perigee:   176.4660 deg
Mean anomaly:     183.6663 deg
Mean motion:   14.81712810 rev/day
Decay rate:       5.62e-06 rev/day^2
Epoch rev:            8751
Checksum:              310

Satellite: AAUSAT2
Catalog number: 32788
Epoch time:      09344.18132879
Element set:     532
Inclination:      097.9218 deg
RA of node:       046.4052 deg
Eccentricity:    0.0015489
Arg of perigee:   178.1106 deg
Mean anomaly:     182.0166 deg
Mean motion:   14.81840681 rev/day
Decay rate:       1.16e-06 rev/day^2
Epoch rev:            8751
Checksum:              310

Satellite: DO-64
Catalog number: 32789
Epoch time:      09344.74181159
Element set:     549
Inclination:      097.9275 deg
RA of node:       047.2490 deg
Eccentricity:    0.0015699
Arg of perigee:   174.4347 deg
Mean anomaly:     185.7043 deg
Mean motion:   14.81882949 rev/day
Decay rate:       4.11e-06 rev/day^2
Epoch rev:            8759
Checksum:              365

Satellite: CO-66
Catalog number: 32791
Epoch time:      09344.22474173
Element set:     529
Inclination:      097.9234 deg
RA of node:       046.3901 deg
Eccentricity:    0.0016040
Arg of perigee:   174.8918 deg
Mean anomaly:     185.2454 deg
Mean motion:   14.81525487 rev/day
Decay rate:       3.92e-06 rev/day^2
Epoch rev:            8747
Checksum:              330

Satellite: RS-30
Catalog number: 32953
Epoch time:      09343.57657706
Element set:    0473
Inclination:      082.4995 deg
RA of node:       147.5765 deg
Eccentricity:    0.0019165
Arg of perigee:   154.6018 deg
Mean anomaly:     205.6009 deg
Mean motion:   12.43003179 rev/day
Decay rate:        1.0e-07 rev/day^2
Epoch rev:           07018
Checksum:              300

